Flag for Chile Weather past 2 weeks in Temuco, Chile

Now
45 °F

Clear.


Feels Like: 42 °F
Forecast: 38 / 56 °F
Wind: 5 mph from Southeast

Location: Concepcion Airport

Current Time: Aug 4, 2015 at 7:50:14 AM

Latest Report: Aug 4, 2015 at 7:00 AM


Visibility: 10 mi

Pressure: 29.86 "Hg

Humidity: 93%

Dew point: 43 °F

Location of TemucoLocation

Historic Weather in Temuco — Graph

°F

Temuco temperature yesterday

Maximum temperature yesterday: 55 °F (at 4:00 PM)
Minimum temperature yesterday: 43 °F (at 9:00 AM)
Average temperature yesterday: 50 °F

Past Weeks' High & Low Weather Summary

 TemperatureHumidityPressure
High59 °F (Jul 27, 2:00 PM)100% (Jul 21, 10:00 PM)30.48 "Hg (Jul 21, 10:00 PM)
Low32 °F (Jul 20, 8:00 AM)47% (Jul 20, 2:00 PM)29.74 "Hg (Jul 26, 3:00 PM)
Average51 °F90%30.04 "Hg
* Reported Jul 20 7:00 AM — Aug 4 7:00 AM, Temuco, Weather by CustomWeather, © 2015

Note: Actual official high and low records may vary slightly from our data, if they occured in-between our weather recording intervals... More about our weather records

Advertising

Temuco weather history for previous 24 hours

 ConditionsComfort  
Time TempWeatherWind HumidityBarometerVisibility
7:00 AM
Tue, Aug 4
45 °FClear.5 mph93%29.86 "Hg10 mi
6:00 AM46 °FClear.3 mph87%29.86 "Hg10 mi
5:00 AM46 °FClear.6 mph93%29.92 "Hg10 mi
4:00 AM46 °FClear.3 mph93%29.92 "Hg10 mi
3:00 AM46 °FClear.5 mph93%29.95 "Hg10 mi
2:00 AM48 °FClear.5 mph94%29.95 "Hg10 mi
1:00 AM48 °FClear.5 mph94%29.98 "Hg10 mi
12:00 AM50 °FClear.3 mph88%29.98 "Hg10 mi
11:00 PM
Mon, Aug 3
50 °FClear.2 mph82%29.98 "Hg10 mi
10:00 PM52 °FClear.5 mph82%30.01 "Hg10 mi
9:00 PM54 °FClear.2 mph82%30.01 "Hg10 mi
8:00 PM54 °FClear.2 mph77%30.01 "Hg10 mi
7:00 PM54 °FMostly cloudy.3 mph82%30.01 "HgN/A
6:00 PM55 °FSunny.2 mph67%30.01 "Hg10 mi
5:00 PM55 °FPassing clouds.6 mph72%30.01 "HgN/A
4:00 PM55 °FBroken clouds.9 mph72%30.04 "HgN/A
3:00 PM54 °FPassing clouds.7 mph82%30.04 "HgN/A
2:00 PM54 °FPartly sunny.5 mph82%30.07 "HgN/A
1:00 PM52 °FSunny.7 mph88%30.07 "Hg10 mi
12:00 PM48 °FBroken clouds.6 mph94%30.09 "HgN/A
11:00 AM46 °FSnow. Fog.8 mph100%30.09 "HgN/A
10:00 AM45 °FSnow. Fog.8 mph100%30.12 "HgN/A
9:00 AM43 °FSnow. Fog.3 mph100%30.12 "HgN/A
8:00 AM45 °FScattered clouds.2 mph93%30.12 "HgN/A
7:00 AM45 °FPassing clouds.5 mph93%30.12 "HgN/A
Weather by CustomWeather, © 2015

See weather overviewHow to use our weather pages